Change the Weather History Date:

Wednesday, December 7, 2011

  Actual Average Record
Temperature  
Mean Temperature 32 °F 29 °F  
Max Temperature 46 °F 42 °F 70 °F (1984)
Min Temperature 17 °F 17 °F -16 °F (2005)
Degree Days  
Heating Degree Days 33 36  
Month to date heating degree days 318 244  
Since 1 July heating degree days 1662 1666  
Cooling Degree Days 0 0  
Month to date cooling degree days 0 0  
Year to date cooling degree days 960 830  
Moisture  
Dew Point 16 °F    
Average Humidity 54    
Maximum Humidity 77    
Minimum Humidity 31    
Precipitation  
Precipitation 0.00 in 0.02 in 0.68 in (1994)
Month to date precipitation 0.01 0.14  
Year to date precipitation 27.73 18.14  
Sea Level Pressure  
Sea Level Pressure 30.19 in    
Wind  
Wind Speed 13 mph (WNW)    
Max Wind Speed 23 mph    
Max Gust Speed 26 mph    
Visibility 10 miles    
Events      
T = Trace of Precipitation, MM = Missing Value Source: NWS Daily Summary

Daily Weather History Graph

Daily Weather History Graph

Search for Another Location

Airport or City:

Trip Planner

Search our weather history database for the weather conditions in past years. The results will help you decide how hot, cold, wet, or windy it might be!

Date:

Astronomy

Dec. 07, 2011 Rise Set
Actual Time 7:03 AM MST 4:23 PM MST
Civil Twilight 6:32 AM MST 4:54 PM MST
Nautical Twilight 5:58 AM MST 5:28 PM MST
Astronomical Twilight 5:24 AM MST 6:01 PM MST
Moon 2:26 PM MST (12/7) 4:20 AM MST (12/7)
Length of Visible Light 10h 21m
Length of Day
9h 19m
Waxing Gibbous, 93% of the Moon is Illuminated
Dec 7
Waxing Gibbous
Dec 10
Full
Dec 17
Last Quarter
Dec 24
New
Dec 31
First Quarter

Hourly Weather History & Observations

Time (MST) Temp. Windchill Dew Point Humidity Pressure Visibility Wind Dir Wind Speed Gust Speed Precip Events Conditions
1:53 AM 28.9 °F 16.9 °F 15.1 °F 56% 30.14 in 10.0 mi NW 17.3 mph 25.3 mph N/A   Clear
2:53 AM 26.1 °F 15.6 °F 15.1 °F 63% 30.16 in 10.0 mi NW 11.5 mph - N/A   Clear
3:53 AM 25.0 °F 12.6 °F 14.0 °F 63% 30.17 in 10.0 mi WNW 15.0 mph - N/A   Clear
4:53 AM 28.0 °F 15.3 °F 15.1 °F 58% 30.17 in 10.0 mi NW 18.4 mph - N/A   Clear
6:53 AM 23.0 °F 12.4 °F 12.9 °F 65% 30.24 in 10.0 mi WNW 10.4 mph - N/A   Clear
7:53 AM 27.0 °F 16.1 °F 15.1 °F 61% 30.26 in 10.0 mi WNW 12.7 mph - N/A   Clear
8:53 AM 33.1 °F 23.0 °F 16.0 °F 50% 30.25 in 10.0 mi NW 15.0 mph - N/A   Clear
9:53 AM 39.0 °F 30.6 °F 18.0 °F 43% 30.24 in 10.0 mi NW 15.0 mph - N/A   Clear
10:53 AM 42.1 °F 34.9 °F 18.0 °F 38% 30.21 in 10.0 mi NW 13.8 mph - N/A   Clear
11:53 AM 45.0 °F 37.1 °F 18.0 °F 34% 30.17 in 10.0 mi NW 19.6 mph 25.3 mph N/A   Clear
12:53 PM 46.0 °F 39.9 °F 18.0 °F 33% 30.15 in 10.0 mi NNW 13.8 mph - N/A   Clear
1:53 PM 46.0 °F 40.6 °F 18.0 °F 33% 30.12 in 10.0 mi NNW 11.5 mph - N/A   Clear
2:53 PM 44.1 °F 39.0 °F 18.0 °F 35% 30.14 in 10.0 mi WNW 9.2 mph - N/A   Clear
3:53 PM 37.9 °F 32.7 °F 19.0 °F 47% 30.16 in 10.0 mi NW 6.9 mph - N/A   Clear
4:53 PM 28.0 °F 19.3 °F 17.1 °F 63% 30.19 in 10.0 mi West 9.2 mph - N/A   Clear
5:53 PM 24.1 °F 15.2 °F 15.1 °F 69% 30.22 in 10.0 mi West 8.1 mph - N/A   Clear
6:53 PM 21.9 °F 11.0 °F 15.1 °F 75% 30.23 in 10.0 mi WSW 10.4 mph - N/A   Clear
7:53 PM 21.0 °F 9.9 °F 15.1 °F 78% 30.23 in 10.0 mi WSW 10.4 mph - N/A   Clear
8:53 PM 21.9 °F 10.4 °F 15.1 °F 75% 30.20 in 10.0 mi NW 11.5 mph - N/A   Clear
9:53 PM 19.9 °F 11.1 °F 14.0 °F 78% 30.18 in 10.0 mi WNW 6.9 mph - N/A   Clear
10:53 PM 19.9 °F 9.3 °F 12.9 °F 74% 30.18 in 10.0 mi WNW 9.2 mph - N/A   Clear
11:53 PM 19.0 °F 9.0 °F 14.0 °F 81% 30.16 in 10.0 mi NW 8.1 mph - N/A   Clear